"Pseudo-MPEC" for C5X3JK2

Created 2021 Sep 18 2:07:03 UT using Find_Orb

Click here for an explanation of pseudo-MPECs

 
 Astrometry: 
     C5X3JK2  C2021 09 11.43382803 28 34.34 +00 41 33.0    ~9BBM 20.74GVNEOCPG96
     C5X3JK2  C2021 09 11.43855503 28 42.70 +00 42 19.3    ~9BBM 20.65GVNEOCPG96
     C5X3JK2  C2021 09 11.44327103 28 51.23 +00 43 05.7    ~9BBM       VNEOCPG96
     C5X3JK2 KC2021 09 11.49977503 30 31.19 +00 52 10.9    ~9BCb       VNEOCPG96
     C5X3JK2 KC2021 09 11.50025303 30 32.06 +00 52 15.8    ~9BCb 20.51GVNEOCPG96
     C5X3JK2 KC2021 09 11.50073103 30 32.92 +00 52 20.5    ~9BCb 20.60GVNEOCPG96
     C5X3JK2 KC2021 09 11.50120903 30 33.77 +00 52 24.6    ~9BCb 20.39GVNEOCPG96

Station data:
(G96) Mt. Lemmon Survey  (N32.442754 W110.788720)  US/Arizona.  Observers T.
   A. Pruyne, B. M. Africano, E. J. Christensen, G. A. Farneth, D. C. Fuls,
   A. R. Gibbs, A. D. Grauer, H. Gröller, J. A. Johnson, R. A. Kowalski, S.
   M. Larson, G. J. Leonard, D. Rankin, R. L. Seaman, F. C. Shelly. 1.5-m
   reflector + 10K CCD.

Orbital elements:  C5X3JK2
   Perigee 2021 Sep 11.182730 TT =  4:23:07 (JD 2459468.682730)
Epoch 2021 Sep 11.0 TT = JDT 2459468.5                        AutoNEOCP
M 359.88739405                      (J2000 equator)
n   0.61624291     Peri.    1.67555
a   0.01973225     Node    47.56343
e   0.8250906      Incl.   13.56208
P   1.60/584.17d   H   31.0     G   0.15   q 516315.707km  Q 0.03601316
From 7 observations 2021 Sept. 11 (97.0 min); mean residual 0".47
Residuals in arcseconds: 
210911 G96  .92+  .47-    210911 G96  .37-  .17-    210911 G96  .25+  .27-    
210911 G96  1.1-  .05-    210911 G96  .01-  .13+    
210911 G96  .16+  .60+    210911 G96  .19+  .23+    

Ephemerides (geocentric):
Date (UTC) HH   RA              Dec         delta   r     elong  mag
---- -- -- --  -------------   -----------  ------ ------ -----  ---
2021 09 18 02  07 29 19.708   +12 27 12.78  691290 1.0028  63.4 23.9
2021 09 18 03  07 30 24.605   +12 28 50.69  693033 1.0028  63.2 23.9
2021 09 18 04  07 31 29.202   +12 30 27.15  694781 1.0027  62.9 23.9
2021 09 18 05  07 32 33.501   +12 32 02.18  696532 1.0027  62.7 24.0
2021 09 18 06  07 33 37.502   +12 33 35.79  698288 1.0027  62.5 24.0
2021 09 18 07  07 34 41.208   +12 35 08.00  700048 1.0026  62.3 24.0
2021 09 18 08  07 35 44.619   +12 36 38.82  701812 1.0026  62.1 24.0
2021 09 18 09  07 36 47.738   +12 38 08.26  703581 1.0026  61.9 24.0
2021 09 18 10  07 37 50.565   +12 39 36.34  705352 1.0025  61.7 24.1
2021 09 18 11  07 38 53.102   +12 41 03.06  707128 1.0025  61.4 24.1
2021 09 18 12  07 39 55.350   +12 42 28.45  708908 1.0025  61.2 24.1
2021 09 18 13  07 40 57.311   +12 43 52.51  710692 1.0024  61.0 24.1
2021 09 18 14  07 41 58.986   +12 45 15.26  712479 1.0024  60.8 24.1
2021 09 18 15  07 43 00.377   +12 46 36.71  714270 1.0024  60.6 24.2
2021 09 18 16  07 44 01.485   +12 47 56.87  716064 1.0023  60.4 24.2
2021 09 18 17  07 45 02.312   +12 49 15.76  717863 1.0023  60.2 24.2
2021 09 18 18  07 46 02.858   +12 50 33.39  719664 1.0023  60.0 24.2
2021 09 18 19  07 47 03.126   +12 51 49.77  721470 1.0022  59.8 24.2
2021 09 18 20  07 48 03.116   +12 53 04.91  723279 1.0022  59.6 24??
2021 09 18 21  07 49 02.831   +12 54 18.83  725091 1.0022  59.4 24??
2021 09 18 22  07 50 02.271   +12 55 31.54  726907 1.0021  59.2 24??
2021 09 18 23  07 51 01.438   +12 56 43.05  728726 1.0021  59.0 24??
2021 09 19 00  07 52 00.334   +12 57 53.36  730548 1.0021  58.8 24??
2021 09 19 01  07 52 58.959   +12 59 02.51  732374 1.0021  58.6 24??
2021 09 19 02  07 53 57.316   +13 00 10.49  734203 1.0020  58.4 24??
2021 09 19 03  07 54 55.406   +13 01 17.31  736035 1.0020  58.2 24??
2021 09 19 04  07 55 53.229   +13 02 23.00  737871 1.0020  58.0 24??
2021 09 19 05  07 56 50.788   +13 03 27.55  739709 1.0019  57.8 24??
2021 09 19 06  07 57 48.085   +13 04 30.99  741551 1.0019  57.7 24??
2021 09 19 07  07 58 45.119   +13 05 33.32  743395 1.0019  57.5 24??
2021 09 19 08  07 59 41.894   +13 06 34.56  745243 1.0018  57.3 24??
2021 09 19 09  08 00 38.409   +13 07 34.71  747094 1.0018  57.1 24??
2021 09 19 10  08 01 34.668   +13 08 33.79  748948 1.0018  56.9 24??
2021 09 19 11  08 02 30.670   +13 09 31.81  750804 1.0017  56.7 24??
2021 09 19 12  08 03 26.418   +13 10 28.78  752664 1.0017  56.5 24??
2021 09 19 13  08 04 21.912   +13 11 24.71  754526 1.0017  56.4 24??
2021 09 19 14  08 05 17.155   +13 12 19.60  756391 1.0016  56.2 24??
2021 09 19 15  08 06 12.148   +13 13 13.48  758259 1.0016  56.0 24??
2021 09 19 16  08 07 06.891   +13 14 06.35  760130 1.0016  55.8 24??
2021 09 19 17  08 08 01.387   +13 14 58.23  762003 1.0015  55.7 24??
2021 09 19 18  08 08 55.637   +13 15 49.11  763879 1.0015  55.5 24??
2021 09 19 19  08 09 49.642   +13 16 39.02  765758 1.0015  55.3 24??
2021 09 19 20  08 10 43.403   +13 17 27.96  767639 1.0014  55.1 24??
2021 09 19 21  08 11 36.922   +13 18 15.94  769523 1.0014  55.0 24??
2021 09 19 22  08 12 30.201   +13 19 02.98  771410 1.0014  54.8 24??
2021 09 19 23  08 13 23.240   +13 19 49.08  773299 1.0014  54.6 24??
2021 09 20 00  08 14 16.042   +13 20 34.25  775190 1.0013  54.4 24??
2021 09 20 01  08 15 08.606   +13 21 18.50  777084 1.0013  54.3 24??